Location: Bacea
(45.9500°N, 22.6667°E)
Time: 21:42:02
(UTC+00:00)

Meteor 1-11 - Pass Details

Date: 16 October 2021
Orbit: 840 x 887 km, 81.2° (Epoch: 29 November)

Event Time Altitude Azimuth Distance (km) Brightness Sun altitude
Rises 17:55:10 0° 347° (NNW) 3,408 7.7 -23.9°
Reaches altitude 10° 17:57:35 10° 345° (NNW) 2,469 6.9 -24.3°
Maximum altitude 18:03:09 73° 263° (W) 885 4.3 -25.3°
Enters shadow 18:06:49 22° 182° (S) 1,757 5.7 -25.9°
